Location: Antioch Baptist Church
(32.6696°N, 85.7327°W)
Time: 20:53:26
(UTC+00:00)

Cosmos 2173 Rocket - Pass Details

Date: 14 July 2020
Orbit: 944 x 1002 km, 83.0° (Epoch: 13 August)

Event Time Altitude Azimuth Distance (km) Brightness Sun altitude
Exits shadow 06:56:53 66° 29° (NNE) 1,083 4.3 -33.4°
Drops below altitude 10° 07:02:17 10° 9° (N) 2,755 7.2 -33.0°
Sets 07:04:48 0° 8° (N) 3,700 8.1 -32.8°
